INMARSAT 4-F2

导读 | 星芒AI

INMARSAT 4-F2 是国际海事卫星组织(Inmarsat)的第四代宽带全球区域卫星,于2005年发射,位于东经64.5度的地球同步轨道。该卫星提供移动宽带通信服务,主要面向海事、航空和陆地用户,支持语音、数据和互联网接入。作为Inmarsat Global Xpress(GX)网络的重要组成部分,INMARSAT 4-F2 采用Ka波段,具备高容量和先进波束技术,提升了通信效率和覆盖范围。

基本信息
目录编号:
28899
目录名称:
INMARSAT 4-F2
国际标识:
2005-044A
轨道中心:
EARTH
卫星名称:
INMARSAT 4-F2
卫星全名:
--
卫星状态:
在轨 (已飞行7340 天)
发射日期:
2005-11-08 UTC
国别 :
(IM)
星等 :
--
轨道信息
数据来源 国际轨道数据 AOE轨道数据
星历时间 2025-12-13T06:43:04+0800
11小时前
查看轨道信息
2025-12-13T04:00:00+0800
13小时前
查看轨道信息
半长轴 42164.868km 42164.812km
偏心率 0.0002875 0.000285
轨道倾角 4.853° 4.853°
近地点辐角 221.724° 219.156°
升交点赤经 43.693° 43.693°
平近点角 300.739° 262.430°
近地点 35774.61km 35774.66km
远地点 35798.856km 35798.694km
周期 1436.104分钟 1436.101分钟
每日圈数 1.002713 1.002715
详细信息
使用方式:
暂无
2D轨道图
3D轨道图
轨道高度分析图
轨道倾角分析图
轨道综合分析图
查看轨道综合分析图